Powrót do katalogu

FLOCK 4G 12

AktywnyNaukaSSO
NORAD 62625·PAYLOAD·🇺🇸 United States

Wystrzelony Jan 14, 2025 z Vandenberg Space Force Base

Loading…

Następne Przeloty (najbliższe 24 godziny)

TLE

ŚwieżeSource: CelesTrak SupGP

Epoka: Sep 14, 2026, 14:44 UTC

1 62625C 25009S   26257.61417824  .00010391  00000+0  34991-3 0  2571
2 62625  97.3970 339.1069 0003763  15.0987 134.7933 15.30809103    19

Śledź FLOCK 4G 12 w czasie rzeczywistym z AllMySat

Download on the App Store